User: anonymous   Login
Location: Nairn
(57.5833°N, 3.8667°W)
Time: 08:51:32
(UTC+00:00)
Language:

S-56A Canister/Altair - Orbit

View from above orbital plane
View from above orbital plane
View from above satellite
View from above satellite

Ground track
Ground track

The orbit data is extracted from the following two-line orbital elements,

1    82U 61004B   24063.89342768  .00001007  00000-0  88935-3 0  9997
2    82  38.8502 219.6368 1163836 145.6244 222.5601 12.26580750974180
Epoch (UTC): 03 March 2024 21:26:32
Eccentricity: 0.1163836
inclination: 38.8502°
perigee height: 639 km
apogee height: 2488 km
right ascension of ascending node: 219.6368°
argument of perigee: 145.6244°
revolutions per day: 12.26580750
mean anomaly at epoch: 222.5601°
orbit number at epoch: 97418

The dashed part of the orbit path shows where the satellite is in the earth's shadow,  

DLR